Regional Weather Roundup
Issued by NWS Bismarck, ND

Home | Current Version | Previous Version | Text Only | Print | Product List | Glossary On
Versions: 1 2 3 4 5 6 7 8 9 10 11 12 13 14 15 16 17 18 19 20 21 22 23 24 25 26 27 28 29 30 31 32 33 34 35 36 37 38 39 40 41 42 43 44 45 46 47 48 49 50
189
ASUS43 KBIS 070310
RWRBIS

NWR BROADCAST TEXT
NATIONAL WEATHER SERVICE BISMARCK ND
900 PM CST SAT FEB 06 2016

NOTE: "FAIR" INDICATES FEW OR NO CLOUDS BELOW 12,000 FEET WITH NO
SIGNIFICANT WEATHER AND/OR OBSTRUCTIONS TO VISIBILITY.


CITY           SKY/WX    TMP DP  RH WIND       PRES   REMARKS
WILLISTON      CLEAR     38  24  57 W18G28    29.80R
MINOT          CLOUDY    40  31  70 W24G31    29.61R
MINOT AFB      MOCLDY    37  37  99 W22G28    29.59R
BISMARCK       CLOUDY    46  30  53 NW22G35   29.73R
DICKINSON      CLEAR     36  24  62 W31G43    29.80R
GARRISON         N/A     39  32  76 W26G41    29.66R
HETTINGER ARPT CLEAR     38  23  55 W31G43    29.87R
JAMESTOWN      PTCLDY    40  29  64 SW18      29.60F
BEACH          FAIR      36  25  64 W26       29.93R
CARRINGTON     MOCLDY    39  34  81 W25G33    29.59F
HAZEN          CLOUDY    39  32  75 W20G30    29.74R
LINTON         FAIR      41  27  56 W20G29    29.75S
MANDAN         CLOUDY    41  30  65 NW29G36   29.72R
OAKES          FAIR      34  34 100 S10       29.67F
RUGBY          CLOUDY    36  34  93 W26G32    29.52R
STANLEY        FAIR      36  30  80 W25G39    29.69R
TIOGA          FAIR      36  28  75 W28G41    29.77R
WATFORD CITY   FAIR      37  25  60 W17G26    29.81R
$$

CITY           SKY/WX    TMP DP  RH WIND       PRES   REMARKS
GRAND FORKS    CLOUDY    40  31  70 SW16      29.51F
GRAND FORKS AF CLOUDY    40  31  71 SW15      29.51F
DEVILS LAKE    CLOUDY    38  30  73 W21       29.51
FARGO          MOCLDY    39  33  79 SW15      29.61S
CAVALIER       FAIR      39  32  75 W13G21    29.44F
GRAFTON        FAIR      37  32  81 SW15      29.49F
GWINNER          N/A     36  34  93 SW16      29.67F
LANGDON        FAIR      34  30  86 SW14      29.44F
ROLLA          MOCLDY    36  32  87 W22G35    29.46S
WALHALLA       FAIR      39  32  75 SW14G22   29.42F
$$

CITY           SKY/WX    TMP DP  RH WIND       PRES   REMARKS
ABERDEEN       CLOUDY    39  28  64 SW12      29.73R
MOBRIDGE       CLEAR     41  26  55 W12       29.76R
BUFFALO          N/A     39  21  48 W31G43    29.87R
RAPID CITY     CLOUDY    41  21  44 NW18      29.98R
GLASGOW        CLOUDY    36  28  73 W28G37    29.94R
SIDNEY         CLEAR     37  27  65 W33G40    29.84S
WOLF POINT     CLEAR     37  30  75 W22G29    29.92R
GLENDIVE       CLEAR     37  25  60 W29G39    29.93R
MILES CITY     CLOUDY    38  26  62 NW25G33   30.01R
BAKER          CLOUDY    37  23  56 W20G31    29.94R
$$

CITY           SKY/WX    TMP DP  RH WIND       PRES   REMARKS
BILLINGS       CLOUDY    40  13  33 NW30G41   30.08R
GREAT FALLS    PTCLDY    31  16  54 W13       30.17R
REGINA         PTCLDY    36  23  60 NW30G40   29.67R
ESTEVAN        PTCLDY    36  27  69 NW30G39   29.65R
$$





USA.gov is the U.S. government's official web portal to all federal, state and local government web resources and services.